Location: ??????
(55.6500°N, 37.8000°E)
Time: 19:59:53
(UTC+00:00)

Lacrosse 4 Rocket - Pass Details

Date: 14 April 2024
Orbit: 530 x 592 km, 68.0° (Epoch: 26 May)

Event Time Altitude Azimuth Distance (km) Brightness Sun altitude
Exits shadow 00:18:55 11° 284° (WNW) 1,709 3.5 -15.9°
Maximum altitude 00:21:48 22° 334° (NNW) 1,198 3.2 -15.6°
Drops below altitude 10° 00:24:59 10° 27° (NNE) 1,792 5.1 -15.3°
Sets 00:27:33 0° 43° (NE) 2,684 6.8 -15.0°
